| time (UTC) | temp F | wind direction | speed MPH | gust MPH | rain 1hr in | rain 24hr in | rain mn in | humidity % | barometer mb |
| 20260506201517 | 69 | 247 | 3.0 | 5.0 | 0.00 | 0.01 | 0.01 | 73 | 1007.4 |
| 20260506200518 | 68 | 238 | 3.0 | 7.0 | 0.00 | 0.01 | 0.01 | 74 | 1007.6 |
| 20260506195519 | 68 | 244 | 2.0 | 4.0 | 0.00 | 0.01 | 0.01 | 75 | 1007.8 |
| 20260506194518 | 68 | 245 | 2.0 | 3.0 | 0.00 | 0.01 | 0.01 | 76 | 1007.9 |
| 20260506193519 | 67 | 248 | 2.0 | 4.0 | 0.00 | 0.01 | 0.01 | 76 | 1008.0 |
| 20260506192525 | 67 | 250 | 2.0 | 6.0 | 0.00 | 0.01 | 0.01 | 76 | 1008.0 |
| 20260506191538 | 67 | 236 | 3.0 | 4.0 | 0.00 | 0.01 | 0.01 | 76 | 1008.1 |
| 20260506190519 | 67 | 251 | 1.0 | 4.0 | 0.00 | 0.01 | 0.01 | 77 | 1008.1 |
| 20260506185519 | 67 | 229 | 3.0 | 5.0 | 0.00 | 0.01 | 0.01 | 77 | 1008.3 |
| 20260506184519 | 67 | 231 | 3.0 | 9.0 | 0.00 | 0.01 | 0.01 | 77 | 1008.4 |
| 20260506183519 | 67 | 222 | 2.0 | 7.0 | 0.00 | 0.01 | 0.01 | 77 | 1008.5 |
| 20260506182519 | 67 | 215 | 3.0 | 10.0 | 0.00 | 0.01 | 0.01 | 76 | 1008.5 |
| 20260506181519 | 67 | 250 | 3.0 | 5.0 | 0.00 | 0.01 | 0.01 | 75 | 1008.4 |
| 20260506180519 | 67 | 240 | 2.0 | 5.0 | 0.00 | 0.01 | 0.01 | 75 | 1008.6 |
| 20260506175517 | 68 | 229 | 3.0 | 6.0 | 0.00 | 0.01 | 0.01 | 74 | 1008.8 |
| 20260506174520 | 69 | 234 | 3.0 | 6.0 | 0.00 | 0.01 | 0.01 | 71 | 1008.8 |
| 20260506173520 | 69 | 235 | 3.0 | 7.0 | 0.01 | 0.01 | 0.01 | 70 | 1008.7 |
| 20260506172517 | 69 | 231 | 2.0 | 6.0 | 0.01 | 0.01 | 0.01 | 69 | 1008.9 |
| 20260506171518 | 70 | 257 | 4.0 | 10.0 | 0.01 | 0.01 | 0.01 | 68 | 1008.8 |
| 20260506170518 | 69 | 226 | 2.0 | 4.0 | 0.01 | 0.01 | 0.01 | 70 | 1008.8 |
| 20260506165521 | 69 | 248 | 3.0 | 5.0 | 0.01 | 0.01 | 0.01 | 71 | 1009.0 |
| 20260506164521 | 70 | 237 | 2.0 | 3.0 | 0.01 | 0.01 | 0.01 | 72 | 1009.3 |
| 20260506163521 | 70 | 223 | 2.0 | 4.0 | 0.00 | 0.00 | 0.00 | 67 | 1009.3 |
| 20260506162521 | 71 | 251 | 3.0 | 6.0 | 0.00 | 0.00 | 0.00 | 65 | 1009.7 |
| 20260506161522 | 71 | 228 | 2.0 | 4.0 | 0.00 | 0.00 | 0.00 | 65 | 1009.9 |
| 20260506160516 | 70 | 235 | 3.0 | 6.0 | 0.00 | 0.00 | 0.00 | 65 | 1009.9 |
| 20260506155522 | 70 | 249 | 3.0 | 4.0 | 0.00 | 0.00 | 0.00 | 64 | 1009.9 |
| 20260506154522 | 70 | 246 | 2.0 | 4.0 | 0.00 | 0.00 | 0.00 | 65 | 1009.9 |
| 20260506153523 | 70 | 237 | 3.0 | 6.0 | 0.00 | 0.00 | 0.00 | 64 | 1010.0 |
| 20260506152542 | 70 | 257 | 2.0 | 4.0 | 0.00 | 0.00 | 0.00 | 64 | 1010.0 |
| 20260506151522 | 71 | 197 | 2.0 | 4.0 | 0.00 | 0.00 | 0.00 | 63 | 1009.9 |
| 20260506150522 | 70 | 230 | 2.0 | 3.0 | 0.00 | 0.00 | 0.00 | 63 | 1010.1 |
| 20260506145523 | 69 | 236 | 3.0 | 5.0 | 0.00 | 0.00 | 0.00 | 63 | 1010.0 |
| 20260506144523 | 69 | 222 | 2.0 | 4.0 | 0.00 | 0.00 | 0.00 | 64 | 1010.1 |
| 20260506143517 | 69 | 243 | 3.0 | 5.0 | 0.00 | 0.00 | 0.00 | 63 | 1010.1 |
| 20260506142523 | 70 | 219 | 2.0 | 4.0 | 0.00 | 0.00 | 0.00 | 63 | 1010.2 |
| 20260506141523 | 70 | 229 | 3.0 | 5.0 | 0.00 | 0.00 | 0.00 | 62 | 1010.2 |
| 20260506140524 | 70 | 237 | 3.0 | 5.0 | 0.00 | 0.00 | 0.00 | 63 | 1010.0 |
| 20260506135518 | 69 | 208 | 2.0 | 5.0 | 0.00 | 0.00 | 0.00 | 64 | 1010.0 |
| 20260506134518 | 70 | 226 | 3.0 | 6.0 | 0.00 | 0.00 | 0.00 | 63 | 1010.0 |
| 20260506133518 | 70 | 205 | 3.0 | 5.0 | 0.00 | 0.00 | 0.00 | 63 | 1010.0 |
| 20260506132538 | 71 | 220 | 3.0 | 9.0 | 0.00 | 0.00 | 0.00 | 62 | 1010.3 |
| 20260506131518 | 71 | 223 | 3.0 | 6.0 | 0.00 | 0.00 | 0.00 | 62 | 1010.5 |
| 20260506130525 | 70 | 251 | 3.0 | 5.0 | 0.00 | 0.00 | 0.00 | 63 | 1010.6 |
| 20260506125519 | 69 | 223 | 2.0 | 6.0 | 0.00 | 0.00 | 0.00 | 65 | 1010.6 |
| 20260506124524 | 68 | 220 | 2.0 | 5.0 | 0.00 | 0.00 | 0.00 | 66 | 1010.5 |
| 20260506123519 | 68 | 209 | 3.0 | 8.0 | 0.00 | 0.00 | 0.00 | 66 | 1010.5 |
| 20260506122519 | 67 | 235 | 3.0 | 6.0 | 0.00 | 0.00 | 0.00 | 68 | 1010.7 |
| 20260506121525 | 66 | 234 | 2.0 | 4.0 | 0.00 | 0.00 | 0.00 | 70 | 1010.6 |
| 20260506120546 | 66 | 253 | 1.0 | 4.0 | 0.00 | 0.00 | 0.00 | 70 | 1010.6 |
| 20260506115526 | 65 | 214 | 2.0 | 4.0 | 0.00 | 0.00 | 0.00 | 72 | 1010.7 |
| 20260506114520 | 65 | 208 | 2.0 | 6.0 | 0.00 | 0.00 | 0.00 | 73 | 1010.7 |
| 20260506113527 | 65 | 211 | 3.0 | 5.0 | 0.00 | 0.00 | 0.00 | 74 | 1010.7 |
| 20260506112526 | 64 | 201 | 2.0 | 4.0 | 0.00 | 0.00 | 0.00 | 75 | 1010.9 |
| 20260506111527 | 63 | 209 | 2.0 | 4.0 | 0.00 | 0.00 | 0.00 | 75 | 1010.9 |
| 20260506110526 | 63 | 223 | 2.0 | 4.0 | 0.00 | 0.00 | 0.00 | 76 | 1010.8 |
| 20260506105547 | 63 | 217 | 2.0 | 4.0 | 0.00 | 0.00 | 0.00 | 77 | 1010.7 |
| 20260506104548 | 62 | 216 | 1.0 | 3.0 | 0.00 | 0.00 | 0.00 | 78 | 1010.8 |
| 20260506103527 | 62 | 214 | 2.0 | 4.0 | 0.00 | 0.00 | 0.00 | 78 | 1010.9 |
| 20260506102528 | 62 | 210 | 2.0 | 3.0 | 0.00 | 0.00 | 0.00 | 79 | 1010.8 |
| 20260506101527 | 62 | 208 | 1.0 | 2.0 | 0.00 | 0.00 | 0.00 | 80 | 1010.7 |
| 20260506100527 | 62 | 205 | 2.0 | 3.0 | 0.00 | 0.00 | 0.00 | 79 | 1010.6 |
| 20260506095528 | 62 | 193 | 2.0 | 4.0 | 0.00 | 0.00 | 0.00 | 79 | 1010.6 |
| 20260506094528 | 63 | 195 | 1.0 | 3.0 | 0.00 | 0.00 | 0.00 | 79 | 1010.5 |
| 20260506093528 | 62 | 209 | 2.0 | 3.0 | 0.00 | 0.00 | 0.00 | 80 | 1010.5 |
| 20260506092529 | 63 | 181 | 2.0 | 3.0 | 0.00 | 0.00 | 0.00 | 80 | 1010.5 |
| 20260506091528 | 63 | 203 | 2.0 | 4.0 | 0.00 | 0.00 | 0.00 | 80 | 1010.6 |
| 20260506090529 | 63 | 206 | 1.0 | 2.0 | 0.00 | 0.00 | 0.00 | 80 | 1010.6 |
| 20260506085538 | 63 | 186 | 2.0 | 5.0 | 0.00 | 0.01 | 0.00 | 80 | 1010.7 |
| 20260506084518 | 63 | 203 | 2.0 | 6.0 | 0.00 | 0.01 | 0.00 | 80 | 1010.7 |
| 20260506083518 | 63 | 205 | 2.0 | 3.0 | 0.00 | 0.01 | 0.00 | 80 | 1010.8 |
| 20260506082538 | 63 | 194 | 2.0 | 5.0 | 0.00 | 0.01 | 0.00 | 80 | 1010.9 |
| 20260506081515 | 63 | 208 | 2.0 | 4.0 | 0.00 | 0.01 | 0.00 | 80 | 1010.8 |
| 20260506080515 | 63 | 204 | 2.0 | 4.0 | 0.00 | 0.01 | 0.00 | 80 | 1010.8 |
| 20260506073520 | 64 | 212 | 2.0 | 5.0 | 0.00 | 0.01 | 0.00 | 79 | 1010.7 |
| 20260506072520 | 64 | 190 | 1.0 | 4.0 | 0.00 | 0.01 | 0.00 | 79 | 1010.8 |
| 20260506071600 | 64 | 196 | 2.0 | 4.0 | 0.00 | 0.01 | 0.00 | 79 | 1010.9 |
| 20260506070520 | 64 | 209 | 1.0 | 4.0 | 0.00 | 0.01 | 0.00 | 78 | 1010.9 |
| 20260506061518 | 65 | 203 | 1.0 | 6.0 | 0.00 | 0.01 | 0.00 | 76 | 1010.9 |
| 20260506060518 | 65 | 188 | 1.0 | 6.0 | 0.00 | 0.01 | 0.00 | 76 | 1011.0 |
| 20260506050519 | 66 | 205 | 1.0 | 6.0 | 0.00 | 0.01 | 0.00 | 74 | 1011.2 |
| 20260506044519 | 67 | 207 | 2.0 | 5.0 | 0.00 | 0.01 | 0.00 | 73 | 1011.4 |
| 20260506043543 | 66 | 223 | 2.0 | 5.0 | 0.00 | 0.01 | 0.00 | 73 | 1011.4 |
| 20260506042520 | 67 | 227 | 1.0 | 4.0 | 0.00 | 0.01 | 0.00 | 73 | 1011.3 |
| 20260506041520 | 67 | 203 | 2.0 | 6.0 | 0.00 | 0.01 | 0.00 | 72 | 1011.2 |
| 20260506040517 | 67 | 223 | 2.0 | 6.0 | 0.00 | 0.01 | 0.00 | 72 | 1011.2 |
| 20260506035523 | 67 | 221 | 1.0 | 4.0 | 0.00 | 0.01 | 0.01 | 72 | 1011.2 |
| 20260506034520 | 67 | 187 | 1.0 | 4.0 | 0.00 | 0.01 | 0.01 | 71 | 1011.2 |
| 20260506033537 | 67 | 189 | 1.0 | 5.0 | 0.00 | 0.01 | 0.01 | 71 | 1011.3 |
| 20260506032518 | 67 | 219 | 2.0 | 5.0 | 0.00 | 0.01 | 0.01 | 71 | 1011.2 |
| 20260506031518 | 67 | 198 | 1.0 | 4.0 | 0.00 | 0.01 | 0.01 | 71 | 1011.2 |
| 20260506030521 | 66 | 188 | 2.0 | 6.0 | 0.00 | 0.01 | 0.01 | 71 | 1011.3 |
| 20260506025518 | 66 | 197 | 1.0 | 3.0 | 0.00 | 0.01 | 0.01 | 71 | 1011.3 |
| 20260506024519 | 66 | 187 | 2.0 | 4.0 | 0.00 | 0.01 | 0.01 | 71 | 1011.3 |
| 20260506023519 | 67 | 191 | 1.0 | 3.0 | 0.00 | 0.01 | 0.01 | 70 | 1011.3 |
| 20260506022519 | 67 | 173 | 1.0 | 2.0 | 0.00 | 0.01 | 0.01 | 69 | 1011.3 |
| 20260506021539 | 67 | 177 | 2.0 | 5.0 | 0.00 | 0.01 | 0.01 | 67 | 1011.3 |
| 20260506020519 | 68 | 229 | 1.0 | 3.0 | 0.00 | 0.01 | 0.01 | 66 | 1011.3 |
| 20260506015520 | 68 | 177 | 1.0 | 5.0 | 0.00 | 0.01 | 0.01 | 65 | 1011.2 |
| 20260506014520 | 68 | 178 | 2.0 | 5.0 | 0.00 | 0.01 | 0.01 | 64 | 1011.1 |
| 20260506013520 | 69 | 177 | 1.0 | 4.0 | 0.00 | 0.01 | 0.01 | 63 | 1011.0 |
| 20260506012537 | 69 | 220 | 2.0 | 5.0 | 0.00 | 0.01 | 0.01 | 62 | 1010.9 |
| 20260506011520 | 69 | 201 | 2.0 | 4.0 | 0.00 | 0.01 | 0.01 | 61 | 1010.8 |
| 20260506010518 | 70 | 208 | 1.0 | 4.0 | 0.00 | 0.01 | 0.01 | 61 | 1010.8 |
| 20260506005518 | 70 | 159 | 1.0 | 3.0 | 0.00 | 0.01 | 0.01 | 59 | 1010.6 |
| 20260506004518 | 71 | 181 | 1.0 | 3.0 | 0.00 | 0.01 | 0.01 | 58 | 1010.3 |
| 20260506003518 | 71 | 182 | 2.0 | 5.0 | 0.00 | 0.01 | 0.01 | 58 | 1010.2 |
| 20260506002518 | 72 | 215 | 1.0 | 4.0 | 0.00 | 0.01 | 0.01 | 57 | 1010.1 |
| 20260506001515 | 72 | 203 | 2.0 | 5.0 | 0.00 | 0.01 | 0.01 | 56 | 1010.1 |
| 20260506000516 | 72 | 223 | 1.0 | 3.0 | 0.00 | 0.01 | 0.01 | 56 | 1010.1 |